Location: Cerroniocc
(13.7547°S, 72.0222°W)
Time: 20:02:38
(UTC+00:00)

IRS-P2 Rocket - Pass Details

Date: 05 July 2020
Orbit: 794 x 876 km, 99.1° (Epoch: 11 August)

Event Time Altitude Azimuth Distance (km) Brightness Sun altitude
Exits shadow 23:37:29 - 166° (SSE) 2,852 7.1 -15.4°
Reaches altitude 10° 23:38:41 10° 165° (SSE) 2,372 6.7 -15.6°
Maximum altitude 23:43:55 83° 78° (ENE) 808 4.5 -16.8°
Drops below altitude 10° 23:49:08 10° 349° (N) 2,367 7.4 -18.0°
Sets 23:51:27 0° 348° (NNW) 3,299 8.2 -18.6°
